EW0603 Weather Reports


Display with metric or nautical units.
time (UTC)temp
F
wind
direction
speed
MPH
gust
MPH
rain 1hr
in
rain 24hr
in
rain mn
in
humidity
%
barometer
mb
20260503231031 55 251 5.0 17.0 0.00 0.00 0.00 62 1008.4
20260503230925 55 251 5.0 17.0 0.00 0.00 0.00 62 1008.4
20260503230823 55 223 5.0 17.0 0.00 0.00 0.00 62 1008.4
20260503230716 55 172 5.0 17.0 0.00 0.00 0.00 62 1008.5
20260503230611 55 195 5.0 17.0 0.00 0.00 0.00 62 1008.5
20260503230506 55 275 6.0 17.0 0.00 0.00 0.00 62 1008.5
20260503230143 56 208 6.0 17.0 0.00 0.00 0.00 62 1008.4
20260503230040 56 273 6.0 16.0 0.00 0.00 0.00 62 1008.6
20260503225715 56 173 6.0 16.0 0.00 0.00 0.00 62 1008.5
20260503225608 56 250 6.0 16.0 0.00 0.00 0.00 61 1008.5
20260503225503 56 219 6.0 16.0 0.00 0.00 0.00 62 1008.6
20260503225400 56 258 6.0 16.0 0.00 0.00 0.00 62 1009.0
20260503225257 56 246 6.0 16.0 0.00 0.00 0.00 62 1008.6
20260503225150 56 250 6.0 16.0 0.00 0.00 0.00 61 1008.7
20260503224825 56 185 6.0 16.0 0.00 0.00 0.00 61 1008.5
20260503224718 56 220 6.0 16.0 0.00 0.00 0.00 61 1008.5
20260503224357 57 256 5.0 14.0 0.00 0.00 0.00 60 1008.6
20260503224029 57 224 6.0 17.0 0.00 0.00 0.00 59 1008.6
20260503223922 57 249 6.0 17.0 0.00 0.00 0.00 59 1008.8
20260503223820 57 221 6.0 17.0 0.00 0.00 0.00 59 1008.7
20260503223715 57 188 7.0 17.0 0.00 0.00 0.00 59 1008.7
20260503223609 57 268 7.0 17.0 0.00 0.00 0.00 59 1008.6
20260503223505 57 267 8.0 17.0 0.00 0.00 0.00 59 1008.5
20260503223401 57 209 8.0 17.0 0.00 0.00 0.00 59 1008.3
20260503223255 58 236 8.0 17.0 0.00 0.00 0.00 59 1008.5
20260503223149 58 274 8.0 17.0 0.00 0.00 0.00 59 1008.4
20260503223044 58 229 8.0 17.0 0.00 0.00 0.00 58 1008.4
20260503222938 58 252 8.0 17.0 0.00 0.00 0.00 58 1008.4
20260503222834 58 254 8.0 17.0 0.00 0.00 0.00 57 1008.4
20260503222731 58 200 8.0 17.0 0.00 0.00 0.00 57 1008.4
20260503222626 58 218 8.0 17.0 0.00 0.00 0.00 57 1008.4
20260503222257 59 257 8.0 17.0 0.00 0.00 0.00 56 1008.3
20260503221932 59 259 8.0 22.0 0.00 0.00 0.00 55 1008.3
20260503221825 59 245 7.0 22.0 0.00 0.00 0.00 55 1008.3
20260503221722 59 290 7.0 22.0 0.00 0.00 0.00 54 1008.2
20260503220911 60 259 8.0 22.0 0.00 0.00 0.00 53 1008.3
20260503220804 60 261 8.0 22.0 0.00 0.00 0.00 53 1008.2
20260503220659 60 297 8.0 22.0 0.00 0.00 0.00 52 1008.2
20260503220557 60 268 7.0 22.0 0.00 0.00 0.00 52 1008.2
20260503220450 60 273 7.0 22.0 0.00 0.00 0.00 52 1008.2
20260503220345 60 263 7.0 22.0 0.00 0.00 0.00 52 1008.2
20260503220242 60 254 6.0 22.0 0.00 0.00 0.00 52 1008.2
20260503220139 61 243 6.0 22.0 0.00 0.00 0.00 51 1008.1
20260503220033 61 263 5.0 22.0 0.00 0.00 0.00 51 1008.1
20260503215930 61 248 5.0 15.0 0.00 0.00 0.00 50 1008.1
20260503215823 61 219 5.0 15.0 0.00 0.00 0.00 51 1008.1
20260503215458 61 239 6.0 15.0 0.00 0.00 0.00 49 1008.1
20260503215350 61 250 6.0 15.0 0.00 0.00 0.00 50 1008.0
20260503215247 61 267 6.0 15.0 0.00 0.00 0.00 51 1008.0
20260503215142 60 221 6.0 15.0 0.00 0.00 0.00 49 1008.1
20260503215040 60 246 6.0 15.0 0.00 0.00 0.00 49 1008.0
20260503214937 61 235 6.0 15.0 0.00 0.00 0.00 50 1007.9
20260503214834 61 199 6.0 15.0 0.00 0.00 0.00 48 1008.0
20260503214727 61 298 6.0 15.0 0.00 0.00 0.00 48 1008.0
20260503214141 61 256 6.0 19.0 0.00 0.00 0.00 49 1008.1
20260503213820 61 263 6.0 19.0 0.00 0.00 0.00 48 1008.0
20260503213716 61 190 6.0 19.0 0.00 0.00 0.00 48 1008.0
20260503213611 61 223 7.0 19.0 0.00 0.00 0.00 47 1008.0
20260503213504 61 224 6.0 19.0 0.00 0.00 0.00 47 1008.0
20260503213401 61 175 6.0 19.0 0.00 0.00 0.00 47 1008.0
20260503213259 61 227 6.0 19.0 0.00 0.00 0.00 48 1008.1
20260503212939 61 248 6.0 19.0 0.00 0.00 0.00 49 1008.0
20260503212835 61 227 6.0 19.0 0.00 0.00 0.00 48 1007.8
20260503212732 61 226 6.0 19.0 0.00 0.00 0.00 47 1007.9
20260503212629 61 250 5.0 19.0 0.00 0.00 0.00 48 1007.9
20260503212526 61 175 5.0 18.0 0.00 0.00 0.00 49 1008.0
20260503212419 61 226 5.0 18.0 0.00 0.00 0.00 47 1008.0
20260503212053 61 274 6.0 19.0 0.00 0.00 0.00 48 1008.1
20260503211948 61 293 6.0 19.0 0.00 0.00 0.00 48 1008.1
20260503211845 61 274 6.0 19.0 0.00 0.00 0.00 48 1008.1
20260503211741 61 223 7.0 19.0 0.00 0.00 0.00 48 1008.0
20260503211635 61 192 7.0 19.0 0.00 0.00 0.00 47 1008.1
20260503211532 61 238 7.0 19.0 0.00 0.00 0.00 48 1008.0
20260503211426 61 222 7.0 19.0 0.00 0.00 0.00 48 1008.1
20260503211323 61 236 7.0 19.0 0.00 0.00 0.00 49 1008.1
20260503211219 61 259 7.0 19.0 0.00 0.00 0.00 49 1008.1
20260503211116 61 279 7.0 19.0 0.00 0.00 0.00 47 1008.1
20260503211011 61 248 7.0 19.0 0.00 0.00 0.00 47 1008.0
20260503210909 61 262 7.0 19.0 0.00 0.00 0.00 47 1008.0
20260503210801 61 185 6.0 19.0 0.00 0.00 0.00 47 1008.2
20260503210658 61 219 6.0 19.0 0.00 0.00 0.00 47 1008.1
20260503210551 61 235 6.0 19.0 0.00 0.00 0.00 47 1008.0
20260503210444 61 234 6.0 19.0 0.00 0.00 0.00 47 1008.1
20260503210341 61 177 6.0 19.0 0.00 0.00 0.00 47 1008.1
20260503210238 61 264 5.0 19.0 0.00 0.00 0.00 47 1008.1
20260503210133 61 249 5.0 19.0 0.00 0.00 0.00 46 1008.1
20260503210032 61 263 5.0 18.0 0.00 0.00 0.00 47 1008.2
20260503205929 61 208 5.0 18.0 0.00 0.00 0.00 47 1008.2
20260503205823 61 285 5.0 18.0 0.00 0.00 0.00 46 1008.2
20260503205720 61 245 5.0 18.0 0.00 0.00 0.00 47 1008.2
20260503205618 61 221 6.0 18.0 0.00 0.00 0.00 46 1008.3
20260503205513 61 236 6.0 18.0 0.00 0.00 0.00 47 1008.2
20260503205410 61 238 6.0 18.0 0.00 0.00 0.00 46 1008.3
20260503205304 61 207 6.0 18.0 0.00 0.00 0.00 48 1008.2
20260503205200 62 163 6.0 18.0 0.00 0.00 0.00 47 1008.3
20260503205052 62 229 6.0 18.0 0.00 0.00 0.00 45 1008.2
20260503204728 62 158 6.0 18.0 0.00 0.00 0.00 45 1008.3
20260503204626 62 215 6.0 18.0 0.00 0.00 0.00 45 1008.3
20260503204517 62 261 5.0 18.0 0.00 0.00 0.00 46 1008.2
20260503204415 62 249 5.0 18.0 0.00 0.00 0.00 45 1008.3
20260503204055 62 236 5.0 14.0 0.00 0.00 0.00 45 1008.2
20260503203949 62 234 5.0 13.0 0.00 0.00 0.00 45 1008.3
20260503203844 62 234 5.0 13.0 0.00 0.00 0.00 45 1008.2
20260503203739 62 252 5.0 13.0 0.00 0.00 0.00 46 1008.3
20260503203156 62 224 7.0 19.0 0.00 0.00 0.00 43 1008.3
20260503203050 62 252 7.0 19.0 0.00 0.00 0.00 44 1008.4
20260503202945 63 250 7.0 19.0 0.00 0.00 0.00 44 1008.4
20260503202840 63 223 8.0 19.0 0.00 0.00 0.00 45 1008.4
20260503202735 63 289 7.0 19.0 0.00 0.00 0.00 44 1008.4
20260503202633 63 269 7.0 20.0 0.00 0.00 0.00 46 1008.4
20260503202525 63 288 7.0 20.0 0.00 0.00 0.00 47 1008.4
20260503202422 63 193 7.0 20.0 0.00 0.00 0.00 47 1008.3
20260503202317 63 252 7.0 20.0 0.00 0.00 0.00 45 1008.4
20260503202214 63 160 8.0 20.0 0.00 0.00 0.00 45 1008.4
20260503202108 63 259 8.0 20.0 0.00 0.00 0.00 45 1008.3
20260503202004 63 278 7.0 20.0 0.00 0.00 0.00 46 1008.4
20260503201900 63 305 7.0 20.0 0.00 0.00 0.00 44 1008.5
20260503201754 63 281 7.0 20.0 0.00 0.00 0.00 45 1008.5
20260503201650 63 168 7.0 20.0 0.00 0.00 0.00 43 1008.5
20260503201547 63 251 7.0 20.0 0.00 0.00 0.00 44 1008.5
20260503201442 63 246 8.0 20.0 0.00 0.00 0.00 44 1008.5
20260503201336 63 217 8.0 20.0 0.00 0.00 0.00 42 1008.5
20260503201233 63 266 7.0 20.0 0.00 0.00 0.00 44 1008.5
20260503201128 63 221 7.0 20.0 0.00 0.00 0.00 45 1008.6
20260503201023 63 261 6.0 20.0 0.00 0.00 0.00 45 1008.5
20260503200700 63 248 6.0 20.0 0.00 0.00 0.00 45 1008.5
20260503200337 63 223 6.0 16.0 0.00 0.00 0.00 45 1008.6
20260503200230 63 174 6.0 16.0 0.00 0.00 0.00 46 1008.6
20260503195906 63 258 6.0 20.0 0.00 0.00 0.00 44 1008.5
20260503195803 63 250 7.0 20.0 0.00 0.00 0.00 44 1008.6
20260503195657 63 218 7.0 20.0 0.00 0.00 0.00 46 1008.7
20260503195550 62 283 7.0 20.0 0.00 0.00 0.00 45 1008.6
20260503195444 62 278 7.0 20.0 0.00 0.00 0.00 48 1008.5
20260503195121 62 276 7.0 20.0 0.00 0.00 0.00 45 1008.7
20260503195014 62 245 7.0 20.0 0.00 0.00 0.00 44 1008.6
20260503194912 62 269 7.0 20.0 0.00 0.00 0.00 45 1008.7
20260503194546 62 250 5.0 20.0 0.00 0.00 0.00 46 1008.8
20260503194443 62 181 5.0 20.0 0.00 0.00 0.00 46 1008.8
20260503194335 62 206 6.0 20.0 0.00 0.00 0.00 45 1008.8
20260503194230 62 266 5.0 20.0 0.00 0.00 0.00 44 1008.7
20260503194127 62 182 5.0 20.0 0.00 0.00 0.00 44 1008.8
20260503194024 62 236 5.0 19.0 0.00 0.00 0.00 44 1008.8
20260503193922 63 265 5.0 17.0 0.00 0.00 0.00 45 1008.8
20260503193815 63 271 5.0 17.0 0.00 0.00 0.00 46 1008.9
20260503193713 63 267 5.0 17.0 0.00 0.00 0.00 44 1008.9
20260503193608 63 235 5.0 17.0 0.00 0.00 0.00 46 1008.9
20260503193502 63 244 5.0 17.0 0.00 0.00 0.00 46 1008.9
20260503193400 63 212 5.0 17.0 0.00 0.00 0.00 46 1009.0
20260503193258 63 240 5.0 17.0 0.00 0.00 0.00 48 1009.0
20260503192937 63 246 5.0 20.0 0.00 0.00 0.00 44 1009.0
20260503192833 63 234 5.0 20.0 0.00 0.00 0.00 46 1009.1
20260503192727 63 226 6.0 20.0 0.00 0.00 0.00 47 1009.1
20260503192624 63 251 6.0 20.0 0.00 0.00 0.00 45 1009.0
20260503192519 63 263 7.0 20.0 0.00 0.00 0.00 44 1009.1
20260503192155 63 155 7.0 20.0 0.00 0.00 0.00 47 1009.3
20260503192052 63 287 8.0 20.0 0.00 0.00 0.00 44 1009.2
20260503191946 63 269 8.0 20.0 0.00 0.00 0.00 44 1009.2
20260503191627 63 285 7.0 20.0 0.00 0.00 0.00 46 1009.3
20260503191519 63 260 7.0 20.0 0.00 0.00 0.00 44 1009.3
20260503191412 62 215 7.0 20.0 0.00 0.00 0.00 45 1009.2
20260503191309 62 189 7.0 20.0 0.00 0.00 0.00 45 1009.3
20260503190944 62 214 7.0 15.0 0.00 0.00 0.00 44 1009.3
20260503190619 62 254 7.0 15.0 0.00 0.00 0.00 45 1009.4
20260503190513 62 258 7.0 15.0 0.00 0.00 0.00 48 1009.4
20260503190408 61 256 6.0 15.0 0.00 0.00 0.00 47 1009.4
20260503190302 61 221 6.0 15.0 0.00 0.00 0.00 44 1009.4
20260503190159 61 175 6.0 15.0 0.00 0.00 0.00 44 1009.4
20260503190057 61 270 6.0 15.0 0.00 0.00 0.00 45 1009.5
20260503185952 61 200 5.0 15.0 0.00 0.00 0.00 46 1009.4
20260503185848 62 228 5.0 18.0 0.00 0.00 0.00 44 1009.4
20260503185746 62 277 5.0 18.0 0.00 0.00 0.00 45 1009.5
20260503185639 62 265 4.0 18.0 0.00 0.00 0.00 45 1009.4
20260503185535 62 238 4.0 18.0 0.00 0.00 0.00 46 1009.5
20260503185208 62 261 4.0 18.0 0.00 0.00 0.00 50 1009.5
20260503185105 62 247 5.0 18.0 0.00 0.00 0.00 47 1009.5
20260503184959 62 197 6.0 18.0 0.00 0.00 0.00 45 1009.5
20260503184856 62 191 6.0 18.0 0.00 0.00 0.00 44 1009.5
20260503184750 62 203 5.0 18.0 0.00 0.00 0.00 47 1009.5
20260503184645 63 140 5.0 18.0 0.00 0.00 0.00 47 1009.5
20260503184538 62 218 5.0 18.0 0.00 0.00 0.00 47 1009.6
20260503184433 62 246 5.0 18.0 0.00 0.00 0.00 45 1009.5
20260503184327 63 190 5.0 18.0 0.00 0.00 0.00 45 1009.6
20260503184224 63 226 5.0 18.0 0.00 0.00 0.00 46 1009.6
20260503184117 63 259 5.0 18.0 0.00 0.00 0.00 45 1009.4
20260503184010 63 278 5.0 18.0 0.00 0.00 0.00 45 1009.5
20260503183906 63 205 4.0 17.0 0.00 0.00 0.00 47 1009.6
20260503183759 62 257 5.0 17.0 0.00 0.00 0.00 47 1009.6
20260503183655 62 215 5.0 17.0 0.00 0.00 0.00 48 1009.6
20260503183552 62 222 6.0 17.0 0.00 0.00 0.00 46 1009.6
20260503183449 62 208 6.0 17.0 0.00 0.00 0.00 46 1009.6
20260503183346 62 237 6.0 17.0 0.00 0.00 0.00 46 1009.6
20260503183240 62 240 6.0 17.0 0.00 0.00 0.00 47 1009.8
20260503183132 62 231 6.0 17.0 0.00 0.00 0.00 45 1009.7
20260503183029 62 194 6.0 17.0 0.00 0.00 0.00 46 1009.8
20260503182924 62 193 6.0 17.0 0.00 0.00 0.00 44 1009.7
20260503182822 62 186 7.0 17.0 0.00 0.00 0.00 45 1009.7
20260503182716 62 288 7.0 17.0 0.00 0.00 0.00 44 1009.8
20260503182609 62 271 6.0 17.0 0.00 0.00 0.00 45 1009.9
20260503182507 62 283 6.0 17.0 0.00 0.00 0.00 44 1009.9
20260503182400 61 279 5.0 16.0 0.00 0.00 0.00 45 1009.9
20260503182257 61 259 6.0 16.0 0.00 0.00 0.00 47 1010.0
20260503182154 62 195 5.0 16.0 0.00 0.00 0.00 45 1010.0
20260503182048 62 242 5.0 16.0 0.00 0.00 0.00 44 1010.0
20260503181725 62 233 5.0 14.0 0.00 0.00 0.00 48 1010.0
20260503181620 62 207 5.0 14.0 0.00 0.00 0.00 44 1010.1
20260503181517 62 257 5.0 14.0 0.00 0.00 0.00 46 1010.0
20260503181157 62 251 5.0 14.0 0.00 0.00 0.00 47 1010.0
20260503181053 62 259 6.0 14.0 0.00 0.00 0.00 49 1010.1
20260503180730 62 175 5.0 14.0 0.00 0.00 0.00 47 1010.1
20260503180626 62 227 6.0 14.0 0.00 0.00 0.00 48 1010.2
20260503180518 62 198 6.0 19.0 0.00 0.00 0.00 46 1010.2
20260503180413 62 245 6.0 19.0 0.00 0.00 0.00 49 1010.2
20260503180307 62 178 6.0 19.0 0.00 0.00 0.00 46 1010.3
20260503180201 62 252 6.0 19.0 0.00 0.00 0.00 45 1010.2
20260503175840 61 217 6.0 19.0 0.00 0.00 0.00 46 1010.3
20260503175733 61 233 7.0 19.0 0.00 0.00 0.00 45 1010.4
20260503175403 61 239 7.0 19.0 0.00 0.00 0.00 44 1010.3
20260503175258 61 252 7.0 19.0 0.00 0.00 0.00 47 1010.4
20260503175155 61 273 8.0 19.0 0.00 0.00 0.00 46 1010.4
20260503175053 61 281 8.0 19.0 0.00 0.00 0.00 46 1010.5
20260503174950 61 263 8.0 19.0 0.00 0.00 0.00 45 1010.5
20260503174845 61 0 8.0 19.0 0.00 0.00 0.00 47 1010.5
20260503174739 61 230 8.0 19.0 0.00 0.00 0.00 46 1010.5
20260503174637 61 232 8.0 19.0 0.00 0.00 0.00 44 1010.5
20260503174311 61 242 8.0 16.0 0.00 0.00 0.00 43 1010.5
20260503174204 61 250 8.0 16.0 0.00 0.00 0.00 44 1010.6
20260503174101 61 235 8.0 16.0 0.00 0.00 0.00 43 1010.6
20260503173736 61 236 7.0 16.0 0.00 0.00 0.00 45 1010.6
20260503173634 62 257 7.0 17.0 0.00 0.00 0.00 45 1010.6
20260503173529 62 177 7.0 17.0 0.00 0.00 0.00 43 1010.6
20260503173424 62 275 7.0 17.0 0.00 0.00 0.00 44 1010.7
20260503173320 62 232 7.0 17.0 0.00 0.00 0.00 44 1010.6
20260503173213 62 221 7.0 17.0 0.00 0.00 0.00 44 1010.5
20260503173110 62 241 6.0 17.0 0.00 0.00 0.00 48 1010.7
20260503173004 61 299 6.0 17.0 0.00 0.00 0.00 46 1010.7
20260503172901 61 242 7.0 17.0 0.00 0.00 0.00 45 1010.7
20260503172534 61 229 7.0 17.0 0.00 0.00 0.00 45 1010.8
20260503172429 61 210 6.0 17.0 0.00 0.00 0.00 46 1010.9
20260503172324 61 252 7.0 17.0 0.00 0.00 0.00 45 1010.8
20260503172219 61 222 6.0 17.0 0.00 0.00 0.00 46 1010.7
20260503172112 61 221 6.0 17.0 0.00 0.00 0.00 46 1010.8
20260503172008 61 178 6.0 17.0 0.00 0.00 0.00 48 1010.8
20260503171903 61 250 5.0 17.0 0.00 0.00 0.00 48 1010.8
20260503171801 61 274 5.0 17.0 0.00 0.00 0.00 48 1010.9
20260503171656 60 243 5.0 16.0 0.00 0.00 0.00 49 1010.9
20260503171550 60 261 5.0 21.0 0.00 0.00 0.00 46 1010.9
20260503171444 60 222 6.0 21.0 0.00 0.00 0.00 47 1010.9
20260503171341 60 276 6.0 21.0 0.00 0.00 0.00 46 1011.0
20260503171236 60 269 6.0 21.0 0.00 0.00 0.00 48 1011.0
20260503171129 60 236 7.0 21.0 0.00 0.00 0.00 48 1011.0
20260503171022 60 255 7.0 21.0 0.00 0.00 0.00 49 1011.0
20260503170914 60 189 8.0 21.0 0.00 0.00 0.00 48 1011.0
20260503170808 60 239 8.0 21.0 0.00 0.00 0.00 47 1011.0
20260503170706 60 249 8.0 21.0 0.00 0.00 0.00 47 1011.0
20260503170559 60 270 9.0 21.0 0.00 0.00 0.00 45 1011.0
20260503170454 60 267 8.0 21.0 0.00 0.00 0.00 45 1011.1
20260503170132 60 273 7.0 21.0 0.00 0.00 0.00 47 1011.2
20260503160207 55 192 4.0 16.0 0.00 0.00 0.00 52 1012.0
20260503150809 54 258 6.0 18.0 0.00 0.00 0.00 50 1012.4
20260503150706 54 265 6.0 18.0 0.00 0.00 0.00 50 1012.5
20260503150602 54 271 6.0 18.0 0.00 0.00 0.00 50 1012.5
20260503150500 54 277 7.0 18.0 0.00 0.00 0.00 49 1012.4
20260503150355 54 264 7.0 18.0 0.00 0.00 0.00 50 1012.4
20260503150248 54 267 7.0 18.0 0.00 0.00 0.00 51 1012.5
20260503140221 54 230 6.0 15.0 0.00 0.00 0.00 51 1012.6
20260503140114 54 247 6.0 15.0 0.00 0.00 0.00 51 1012.6
20260503131409 51 244 4.0 13.0 0.00 0.00 0.00 55 1012.7
20260503131303 51 241 4.0 13.0 0.00 0.00 0.00 55 1012.7
20260503131157 51 261 4.0 13.0 0.00 0.00 0.00 55 1012.7
20260503130830 51 241 3.0 13.0 0.00 0.00 0.00 55 1012.7
20260503130728 51 229 3.0 13.0 0.00 0.00 0.00 56 1012.7
20260503130624 51 234 3.0 9.0 0.00 0.00 0.00 56 1012.7
20260503130518 51 240 3.0 8.0 0.00 0.00 0.00 57 1012.7
20260503130414 50 209 3.0 8.0 0.00 0.00 0.00 58 1012.8
20260503130311 50 237 3.0 8.0 0.00 0.00 0.00 58 1012.7
20260503130207 50 231 3.0 8.0 0.00 0.00 0.00 58 1012.8
20260503120213 44 242 1.0 7.0 0.00 0.00 0.00 64 1012.7
20260503110522 40 196 0.0 1.0 0.00 0.01 0.00 66 1012.7
20260503110420 40 222 0.0 1.0 0.00 0.01 0.00 66 1012.7
20260503090439 38 182 0.0 0.0 0.00 0.01 0.00 67 1013.4
20260503090336 38 182 0.0 0.0 0.00 0.01 0.00 67 1013.4
20260503081605 39 199 0.0 0.0 0.00 0.01 0.00 64 1013.6
20260503081239 38 199 0.0 0.0 0.00 0.01 0.00 65 1013.7
20260503081137 38 208 0.0 0.0 0.00 0.01 0.00 64 1013.7
20260503080808 38 221 0.0 0.0 0.00 0.01 0.00 65 1013.7
20260503080443 38 220 0.0 0.0 0.00 0.01 0.00 65 1013.7
20260503080335 38 219 0.0 0.0 0.00 0.01 0.00 65 1013.7
20260503072933 37 0 0.0 0.0 0.00 0.01 0.00 67 1013.8
20260503072827 37 240 0.0 0.0 0.00 0.01 0.00 67 1013.8
20260503072720 37 240 0.0 0.0 0.00 0.01 0.00 67 1013.8
20260503072616 37 240 0.0 0.0 0.00 0.01 0.00 66 1013.8
20260503072513 38 240 0.0 0.0 0.00 0.01 0.00 66 1013.8
20260503072411 38 240 0.0 0.0 0.00 0.01 0.00 66 1013.8
20260503072043 38 240 0.0 0.0 0.00 0.01 0.00 66 1013.8
20260503071939 38 240 0.0 0.0 0.00 0.01 0.00 66 1013.8
20260503071832 38 240 0.0 0.0 0.00 0.01 0.00 66 1013.8
20260503071725 38 240 0.0 0.0 0.00 0.01 0.00 66 1013.8
20260503071621 38 240 0.0 0.0 0.00 0.01 0.00 66 1013.8
20260503071514 38 240 0.0 0.0 0.00 0.01 0.00 66 1013.8
20260503071409 38 240 0.0 0.0 0.00 0.01 0.00 66 1013.8
20260503071302 38 240 0.0 0.0 0.00 0.01 0.00 66 1013.8
20260503071157 38 240 0.0 0.0 0.00 0.01 0.00 66 1013.8
20260503071052 38 240 0.0 0.0 0.00 0.01 0.00 66 1013.8
20260503070947 38 240 0.0 0.0 0.00 0.01 0.00 66 1013.8
20260503070624 38 240 0.0 0.0 0.00 0.01 0.00 65 1013.8
20260503070520 38 240 0.0 0.0 0.00 0.01 0.00 65 1013.8
20260503070416 38 240 0.0 0.0 0.00 0.01 0.00 66 1013.8
20260503060327 37 246 0.0 0.0 0.00 0.01 0.00 67 1014.3
20260503060222 37 263 0.0 0.0 0.00 0.01 0.00 67 1014.3
20260503054742 38 267 0.0 0.0 0.00 0.01 0.00 67 1014.4
20260503054635 38 267 0.0 0.0 0.00 0.01 0.00 67 1014.5
20260503054532 38 267 0.0 0.0 0.00 0.01 0.00 67 1014.4
20260503054426 38 267 0.0 0.0 0.00 0.01 0.00 67 1014.4
20260503054324 38 267 0.0 0.0 0.00 0.01 0.00 67 1014.5
20260503054220 38 267 0.0 0.0 0.00 0.01 0.00 66 1014.5
20260503054113 38 267 0.0 0.0 0.00 0.01 0.00 66 1014.5
20260503054010 38 267 0.0 0.0 0.00 0.01 0.00 66 1014.5
20260503053905 38 267 0.0 0.0 0.00 0.01 0.00 66 1014.5
20260503053802 38 267 0.0 0.0 0.00 0.01 0.00 66 1014.6
20260503053438 38 275 0.0 0.0 0.00 0.01 0.00 66 1014.6
20260503053113 38 275 0.0 0.0 0.00 0.01 0.00 67 1014.6
20260503053010 38 276 0.0 0.0 0.00 0.01 0.00 67 1014.6
20260503052907 38 0 0.0 0.0 0.00 0.01 0.00 66 1014.6
20260503052803 38 276 0.0 0.0 0.00 0.01 0.00 66 1014.6
20260503052659 38 276 0.0 0.0 0.00 0.01 0.00 66 1014.6
20260503052554 38 276 0.0 0.0 0.00 0.01 0.00 66 1014.7
20260503052447 38 276 0.0 0.0 0.00 0.01 0.00 66 1014.7
20260503052345 38 276 0.0 0.0 0.00 0.01 0.00 66 1014.7
20260503052243 38 276 0.0 0.0 0.00 0.01 0.00 66 1014.7
20260503052137 38 276 0.0 0.0 0.00 0.01 0.00 66 1014.6
20260503052031 38 276 0.0 0.0 0.00 0.01 0.00 66 1014.7
20260503051929 38 276 0.0 0.0 0.00 0.01 0.00 66 1014.7
20260503051822 38 276 0.0 0.0 0.00 0.01 0.00 66 1014.6
20260503051717 38 278 0.0 0.0 0.00 0.01 0.00 66 1014.7
20260503051614 38 277 0.0 0.0 0.00 0.01 0.00 66 1014.7
20260503051511 38 278 0.0 0.0 0.00 0.01 0.00 66 1014.7
20260503051408 38 278 0.0 0.0 0.00 0.01 0.00 66 1014.7
20260503051306 38 278 0.0 0.0 0.00 0.01 0.00 66 1014.7
20260503051203 38 277 0.0 0.0 0.00 0.01 0.00 66 1014.7
20260503050835 38 278 0.0 0.0 0.00 0.01 0.00 66 1014.7
20260503050731 38 278 0.0 0.0 0.00 0.01 0.00 66 1014.7
20260503050146 38 279 0.0 0.0 0.00 0.01 0.00 66 1014.7
20260503050041 38 279 0.0 0.0 0.00 0.01 0.00 66 1014.8
20260503045938 38 279 0.0 0.0 0.00 0.01 0.00 67 1014.8
20260503045833 38 282 0.0 0.0 0.00 0.01 0.00 67 1014.8
20260503045726 38 282 0.0 0.0 0.00 0.01 0.00 67 1014.8
20260503045618 38 282 0.0 0.0 0.00 0.01 0.00 67 1014.8
20260503045514 38 281 0.0 0.0 0.00 0.01 0.00 67 1014.8
20260503045411 38 282 0.0 0.0 0.00 0.01 0.00 67 1014.8
20260503045307 38 283 0.0 0.0 0.00 0.01 0.00 67 1014.8
20260503045200 38 283 0.0 0.0 0.00 0.01 0.00 66 1014.8
20260503045058 38 286 0.0 0.0 0.00 0.01 0.00 67 1014.8
20260503044954 38 286 0.0 0.0 0.00 0.01 0.00 67 1014.8
20260503044848 38 284 0.0 0.0 0.00 0.01 0.00 67 1014.8
20260503044745 38 286 0.0 0.0 0.00 0.01 0.00 67 1014.8
20260503044641 38 286 0.0 0.0 0.00 0.01 0.00 67 1014.8
20260503044310 38 286 0.0 0.0 0.00 0.01 0.00 68 1014.8
20260503044207 38 286 0.0 0.0 0.00 0.01 0.00 68 1014.8
20260503044100 38 286 0.0 0.0 0.00 0.01 0.00 68 1014.8
20260503043515 38 286 0.0 0.0 0.00 0.01 0.00 67 1014.8
20260503043410 38 286 0.0 0.0 0.00 0.01 0.00 67 1014.8
20260503043042 38 286 0.0 0.0 0.00 0.01 0.00 67 1014.7
20260503042937 38 286 0.0 0.0 0.00 0.01 0.00 67 1014.7
20260503042835 38 286 0.0 0.0 0.00 0.01 0.00 66 1014.8
20260503042732 38 286 0.0 0.0 0.00 0.01 0.00 66 1014.7
20260503042625 38 286 0.0 0.0 0.00 0.01 0.00 66 1014.7
20260503042520 38 286 0.0 0.0 0.00 0.01 0.00 66 1014.7
20260503042415 38 286 0.0 0.0 0.00 0.01 0.00 66 1014.7
20260503042308 38 286 0.0 0.0 0.00 0.01 0.00 66 1014.7
20260503042200 38 286 0.0 0.0 0.00 0.01 0.00 66 1014.7
20260503042055 38 286 0.0 0.0 0.00 0.01 0.00 66 1014.7
20260503041728 38 286 0.0 0.0 0.00 0.01 0.00 66 1014.8
20260503041626 38 286 0.0 0.0 0.00 0.01 0.00 66 1014.8
20260503041520 38 286 0.0 0.0 0.00 0.01 0.00 66 1014.8
20260503041153 38 286 0.0 0.0 0.00 0.01 0.00 66 1014.8
20260503041046 38 286 0.0 0.0 0.00 0.01 0.00 66 1014.9
20260503040939 38 286 0.0 0.0 0.00 0.01 0.00 65 1014.8
20260503040835 38 286 0.0 0.0 0.00 0.01 0.00 65 1014.9
20260503040509 38 286 0.0 0.0 0.00 0.01 0.00 66 1014.9
20260503040403 38 286 0.0 0.0 0.00 0.01 0.00 66 1014.9
20260503040300 38 286 0.0 0.0 0.00 0.01 0.00 66 1014.9
20260503035710 38 286 0.0 0.0 0.00 0.01 0.01 66 1014.9
20260503035345 38 286 0.0 0.0 0.00 0.01 0.01 66 1014.9
20260503035239 38 286 0.0 0.0 0.00 0.01 0.01 66 1014.9
20260503035131 38 286 0.0 0.0 0.00 0.01 0.01 66 1015.0
20260503035024 38 286 0.0 0.0 0.00 0.01 0.01 66 1014.9
20260503034917 38 286 0.0 0.0 0.00 0.01 0.01 66 1014.9
20260503034813 38 286 0.0 0.0 0.00 0.01 0.01 66 1015.0
20260503034706 38 286 0.0 0.0 0.00 0.01 0.01 66 1015.0
20260503034558 38 286 0.0 0.0 0.00 0.01 0.01 66 1015.0
20260503034453 38 286 0.0 0.0 0.00 0.01 0.01 66 1015.0
20260503034347 38 286 0.0 0.0 0.00 0.01 0.01 66 1015.0
20260503034242 38 286 0.0 0.0 0.00 0.01 0.01 66 1015.0
20260503034138 38 286 0.0 0.0 0.00 0.01 0.01 66 1015.0
20260503034034 38 286 0.0 0.0 0.00 0.01 0.01 67 1015.0
20260503033930 38 286 0.0 0.0 0.00 0.01 0.01 67 1014.9
20260503033824 38 286 0.0 0.0 0.00 0.01 0.01 67 1014.9
20260503033721 38 286 0.0 0.0 0.00 0.01 0.01 67 1014.9
20260503033616 38 286 0.0 0.0 0.00 0.01 0.01 68 1014.9
20260503033510 38 286 0.0 0.0 0.00 0.01 0.01 68 1014.9
20260503033149 38 286 0.0 0.0 0.00 0.01 0.01 68 1014.9
20260503033046 38 286 0.0 0.0 0.00 0.01 0.01 68 1015.0
20260503032939 38 286 0.0 0.0 0.00 0.01 0.01 68 1015.0
20260503032132 37 286 0.0 0.0 0.00 0.01 0.01 70 1015.0
20260503032028 37 286 0.0 0.0 0.00 0.01 0.01 71 1015.0
20260503031926 37 286 0.0 0.0 0.00 0.01 0.01 71 1015.1
20260503031819 37 286 0.0 0.0 0.00 0.01 0.01 72 1015.0
20260503031715 36 286 0.0 0.0 0.00 0.01 0.01 72 1015.0
20260503031611 36 286 0.0 0.0 0.00 0.01 0.01 72 1015.1
20260503031508 36 286 0.0 0.0 0.00 0.01 0.01 74 1015.1
20260503031140 36 286 0.0 0.0 0.00 0.01 0.01 77 1015.0
20260503031037 35 286 0.0 0.0 0.00 0.01 0.01 77 1015.1
20260503030712 35 286 0.0 0.0 0.00 0.01 0.01 78 1015.0
20260503030610 35 286 0.0 0.0 0.00 0.01 0.01 78 1015.0
20260503030505 35 286 0.0 0.0 0.00 0.01 0.01 78 1015.1
20260503030139 35 286 0.0 0.0 0.00 0.01 0.01 78 1015.1
20260503030036 35 286 0.0 0.0 0.00 0.01 0.01 78 1015.1
20260503025928 35 286 0.0 0.0 0.00 0.01 0.01 78 1015.1
20260503025824 35 286 0.0 0.0 0.00 0.01 0.01 79 1015.1
20260503025721 35 286 0.0 0.0 0.00 0.01 0.01 79 1015.1
20260503025618 35 286 0.0 0.0 0.00 0.01 0.01 78 1015.1
20260503025511 35 286 0.0 0.0 0.00 0.01 0.01 78 1015.1
20260503025142 35 286 0.0 0.0 0.00 0.01 0.01 79 1015.1
20260503025037 35 286 0.0 0.0 0.00 0.01 0.01 79 1015.1
20260503024931 35 286 0.0 0.0 0.00 0.01 0.01 79 1015.1
20260503024602 36 286 0.0 0.0 0.00 0.01 0.01 79 1015.2
20260503024456 36 286 0.0 0.0 0.00 0.01 0.01 79 1015.2
20260503024132 36 286 0.0 0.0 0.00 0.01 0.01 78 1015.2
20260503023810 36 286 0.0 0.0 0.00 0.01 0.01 78 1015.2
20260503023445 36 286 0.0 0.0 0.00 0.01 0.01 78 1015.1
20260503023342 36 286 0.0 0.0 0.00 0.01 0.01 78 1015.2
20260503023236 36 286 0.0 0.0 0.00 0.01 0.01 78 1015.2
20260503023131 36 286 0.0 0.0 0.00 0.01 0.01 78 1015.2
20260503022810 36 286 0.0 0.0 0.00 0.01 0.01 77 1015.2
20260503022705 36 286 0.0 0.0 0.00 0.01 0.01 77 1015.2
20260503022601 36 286 0.0 0.0 0.00 0.01 0.01 77 1015.1
20260503022458 36 286 0.0 0.0 0.00 0.01 0.01 77 1015.2
20260503022352 36 286 0.0 0.0 0.00 0.01 0.01 77 1015.1
20260503022244 36 286 0.0 0.0 0.00 0.01 0.01 77 1015.1
20260503022137 36 286 0.0 0.0 0.00 0.01 0.01 77 1015.1
20260503022030 36 286 0.0 0.0 0.00 0.01 0.01 77 1015.1
20260503021927 37 286 0.0 0.0 0.00 0.01 0.01 77 1015.1
20260503021825 37 286 0.0 0.0 0.00 0.01 0.01 77 1015.1
20260503021721 37 286 0.0 0.0 0.00 0.01 0.01 77 1015.1
20260503021615 37 286 0.0 0.0 0.00 0.01 0.01 78 1015.2
20260503021511 37 286 0.0 0.0 0.00 0.01 0.01 78 1015.1
20260503021147 37 286 0.0 0.0 0.00 0.01 0.01 77 1015.1
20260503021043 37 286 0.0 0.0 0.00 0.01 0.01 77 1015.1
20260503020941 37 286 0.0 0.0 0.00 0.01 0.01 77 1015.1
20260503020836 37 286 0.0 0.0 0.00 0.01 0.01 77 1015.1
20260503020728 37 286 0.0 0.0 0.00 0.01 0.01 76 1015.1
20260503020625 38 286 0.0 0.0 0.00 0.01 0.01 76 1015.1
20260503020522 38 286 0.0 0.0 0.00 0.01 0.01 76 1015.1
20260503020417 38 286 0.0 0.0 0.00 0.01 0.01 77 1015.1
20260503020313 38 286 0.0 0.0 0.00 0.01 0.01 77 1015.1
20260503020211 38 286 0.0 0.0 0.00 0.01 0.01 77 1015.2
20260503015847 38 286 0.0 0.0 0.00 0.01 0.01 76 1015.0
20260503015741 38 286 0.0 0.0 0.00 0.01 0.01 76 1015.0
20260503015635 38 286 0.0 0.0 0.00 0.01 0.01 76 1015.0
20260503015533 38 286 0.0 0.0 0.00 0.01 0.01 76 1015.0
20260503015429 39 286 0.0 0.0 0.00 0.01 0.01 76 1015.0
20260503015323 39 286 0.0 0.0 0.00 0.01 0.01 76 1015.0
20260503015220 39 286 0.0 0.0 0.00 0.01 0.01 76 1015.0
20260503014857 39 286 0.0 0.0 0.00 0.01 0.01 76 1015.0
20260503014752 39 286 0.0 0.0 0.00 0.01 0.01 76 1015.0
20260503014647 39 286 0.0 0.0 0.00 0.01 0.01 76 1014.9
20260503014542 39 286 0.0 0.0 0.00 0.01 0.01 76 1014.9
20260503014437 39 286 0.0 0.0 0.00 0.01 0.01 75 1014.9
20260503014331 39 286 0.0 0.0 0.00 0.01 0.01 75 1014.9
20260503014228 39 286 0.0 0.0 0.00 0.01 0.01 75 1014.9
20260503014123 40 286 0.0 0.0 0.00 0.01 0.01 75 1014.9
20260503014018 40 286 0.0 0.0 0.00 0.01 0.01 75 1014.9
20260503013913 40 286 0.0 0.0 0.00 0.01 0.01 75 1014.9
20260503013806 40 286 0.0 0.0 0.00 0.01 0.01 75 1014.9
20260503013702 40 286 0.0 0.0 0.00 0.01 0.01 75 1014.8
20260503013335 40 286 0.0 0.0 0.00 0.01 0.01 76 1014.8
20260503013228 40 286 0.0 0.0 0.00 0.01 0.01 75 1014.8
20260503012900 41 286 0.0 0.0 0.00 0.01 0.01 74 1014.8
20260503012758 41 286 0.0 0.0 0.00 0.01 0.01 73 1014.8
20260503012654 41 286 0.0 0.0 0.00 0.01 0.01 73 1014.8
20260503012547 41 286 0.0 0.0 0.00 0.01 0.01 72 1014.8
20260503012224 41 286 0.0 0.0 0.00 0.01 0.01 71 1014.9
20260503012121 41 286 0.0 0.0 0.00 0.01 0.01 71 1014.8
20260503012017 42 286 0.0 0.0 0.00 0.01 0.01 70 1014.8
20260503011651 42 286 0.0 0.0 0.00 0.01 0.01 69 1014.8
20260503011544 42 286 0.0 0.0 0.00 0.01 0.01 69 1014.8
20260503011439 42 286 0.0 0.0 0.00 0.01 0.01 68 1014.8
20260503011334 42 286 0.0 0.0 0.00 0.01 0.01 68 1014.8
20260503011232 42 286 0.0 0.0 0.00 0.01 0.01 68 1014.7
20260503011127 43 286 0.0 0.0 0.00 0.01 0.01 68 1014.8
20260503011023 43 286 0.0 0.0 0.00 0.01 0.01 67 1014.8
20260503010703 43 286 0.0 0.0 0.00 0.01 0.01 67 1014.8
20260503010554 43 286 0.0 0.0 0.00 0.01 0.01 67 1014.8
20260503010449 43 286 0.0 0.0 0.00 0.01 0.01 67 1014.8
20260503010125 44 286 0.0 0.0 0.00 0.01 0.01 65 1014.7
20260503010023 44 286 0.0 0.0 0.00 0.01 0.01 64 1014.7
20260503005921 44 286 0.0 0.0 0.00 0.01 0.01 63 1014.7
20260503005816 44 286 0.0 0.0 0.00 0.01 0.01 63 1014.7
20260503005711 44 286 0.0 0.0 0.00 0.01 0.01 63 1014.7
20260503005606 44 286 0.0 0.0 0.00 0.01 0.01 63 1014.7
20260503005503 44 286 0.0 0.0 0.00 0.01 0.01 63 1014.7
20260503005358 45 286 0.0 0.0 0.00 0.01 0.01 63 1014.7
20260503005252 45 286 0.0 0.0 0.00 0.01 0.01 62 1014.6
20260503005147 45 286 0.0 0.0 0.00 0.01 0.01 63 1014.6
20260503004822 45 286 0.0 0.0 0.00 0.01 0.01 61 1014.6
20260503004454 45 286 0.0 0.0 0.00 0.01 0.01 59 1014.6
20260503004347 46 286 0.0 0.0 0.00 0.01 0.01 59 1014.6
20260503004019 46 286 0.0 0.0 0.00 0.01 0.01 58 1014.6
20260503003916 46 286 0.0 0.0 0.00 0.01 0.01 57 1014.6
20260503003552 46 286 0.0 0.0 0.00 0.01 0.01 56 1014.7
20260503003446 46 286 0.0 0.0 0.00 0.01 0.01 56 1014.6
20260503003340 46 286 0.0 0.0 0.00 0.01 0.01 55 1014.7
20260503003237 46 286 0.0 0.0 0.00 0.01 0.01 55 1014.6
20260503003130 46 286 0.0 0.0 0.00 0.01 0.01 55 1014.6
20260503003025 46 286 0.0 0.0 0.00 0.01 0.01 54 1014.6
20260503002704 46 286 0.0 0.0 0.00 0.01 0.01 54 1014.6
20260503002559 46 286 0.0 0.0 0.00 0.01 0.01 54 1014.6
20260503002451 46 286 0.0 0.0 0.00 0.01 0.01 54 1014.6
20260503002345 46 286 0.0 0.0 0.00 0.01 0.01 54 1014.6
20260503002238 46 286 0.0 0.0 0.00 0.01 0.01 53 1014.6
20260503002131 46 286 0.0 0.0 0.00 0.01 0.01 53 1014.6
20260503002025 46 286 0.0 0.0 0.00 0.01 0.01 53 1014.6
20260503001922 46 286 0.0 0.0 0.00 0.01 0.01 53 1014.6
20260503001820 46 286 0.0 0.0 0.00 0.01 0.01 53 1014.6
20260503001455 46 286 0.0 0.0 0.00 0.01 0.01 54 1014.5
20260503001348 46 286 0.0 0.0 0.00 0.01 0.01 54 1014.5
20260503001021 46 286 0.0 0.0 0.00 0.01 0.01 54 1014.5
20260503000919 46 286 0.0 0.0 0.00 0.01 0.01 54 1014.5
20260503000814 46 286 0.0 0.0 0.00 0.01 0.01 54 1014.5
20260503000710 46 286 0.0 0.0 0.00 0.01 0.01 54 1014.5
20260503000606 46 286 0.0 0.0 0.00 0.01 0.01 55 1014.5
20260503000502 46 286 0.0 0.0 0.00 0.01 0.01 55 1014.5
20260503000142 47 286 0.0 0.0 0.00 0.01 0.01 54 1014.5
20260503000035 47 286 0.0 0.0 0.00 0.01 0.01 54 1014.6
20260502235928 47 286 0.0 0.0 0.00 0.01 0.01 54 1014.6
20260502235558 47 286 0.0 0.0 0.00 0.01 0.01 52 1014.6
20260502235452 47 286 0.0 0.0 0.00 0.01 0.01 52 1014.5
20260502235347 47 286 0.0 0.0 0.00 0.01 0.01 52 1014.5
20260502235243 47 286 0.0 0.0 0.00 0.01 0.01 51 1014.6
20260502235137 47 286 0.0 0.0 0.00 0.01 0.01 51 1014.6
20260502235035 47 286 0.0 0.0 0.00 0.01 0.01 51 1014.6
20260502234713 47 285 0.0 0.0 0.00 0.01 0.01 50 1014.6
20260502233910 47 286 0.0 4.0 0.00 0.01 0.01 51 1014.7
20260502233808 47 285 0.0 0.0 0.00 0.01 0.01 50 1014.6
20260502233703 47 286 0.0 0.0 0.00 0.01 0.01 50 1014.6
20260502233336 47 286 1.0 3.0 0.00 0.01 0.01 50 1014.6
20260502233233 47 286 0.0 3.0 0.00 0.01 0.01 50 1014.6
20260502233127 47 288 0.0 3.0 0.00 0.01 0.01 50 1014.7
20260502232801 47 272 0.0 3.0 0.00 0.01 0.01 51 1014.7
20260502232658 47 272 0.0 3.0 0.00 0.01 0.01 51 1014.7
20260502232556 47 274 0.0 3.0 0.00 0.01 0.01 52 1014.7
20260502232450 47 300 0.0 2.0 0.00 0.01 0.01 53 1014.7
20260502232124 47 302 2.0 0.0 0.00 0.01 0.01 51 1014.6
20260502232022 47 302 2.0 0.0 0.00 0.01 0.01 51 1014.6
20260502231918 47 301 2.0 6.0 0.00 0.01 0.01 50 1014.7
20260502231814 47 301 2.0 6.0 0.00 0.01 0.01 49 1014.6
20260502231711 47 302 2.0 6.0 0.00 0.01 0.01 50 1014.6
20260502231608 48 289 2.0 6.0 0.00 0.01 0.01 50 1014.6
20260502231504 48 279 2.0 6.0 0.00 0.01 0.01 50 1014.7
20260502231357 48 286 2.0 7.0 0.00 0.01 0.01 49 1014.7
20260502231253 48 300 1.0 7.0 0.00 0.01 0.01 50 1014.7
20260502231149 48 275 1.0 7.0 0.00 0.01 0.01 50 1014.7
20260502231044 48 0 2.0 7.0 0.00 0.01 0.01 51 1014.7